Location: Voyageurs National Park
(48.5020°N, 92.9292°W)
Time: 01:08:23
(UTC-06:00)

Daily predictions for brighter satellites

Satellite Brightness Start Highest point End
(mag) Time Altitude Azimuth Time Altitude Azimuth Time Altitude Azimuth
CENTAUR R/B 4.3 03:30:08 28° NE 03:30:08 28° NE 03:33:20 10° NE
Cosmos 2263 Rocket 4.2 04:15:01 20° NNE 04:15:01 20° NNE 04:16:42 10° NNE
Lacrosse 5 4.5 04:22:24 12° SE 04:22:24 12° SE 04:22:41 10° SE
CZ-4C R/B 2.9 04:28:27 68° NNE 04:28:54 70° NE 04:36:46 10° SE
Cosmos 407 Rocket 4.5 04:42:03 41° NE 04:42:03 41° NE 04:45:33 10° NNE
ATLAS CENTAUR R/B 3.4 04:45:52 25° ENE 04:45:52 25° ENE 04:48:27 10° E
Cosmos 1844 Rocket 3.3 04:50:13 41° SSE 04:51:44 53° ESE 04:57:09 10° NE
USA 234 3.4 04:49:20 10° NE 04:55:44 58° NNW 04:55:53 57° NNW
Cosmos 2181 Rocket 4.3 04:50:56 10° N 04:57:14 65° ENE 05:03:23 10° SSE
Cosmos 1386 Rocket 4.4 04:59:33 78° WNW 04:59:33 78° WNW 05:05:56 10° N
COSMOS 2455 2.9 05:05:22 64° NNW 05:05:22 64° NNW 05:10:53 10° NNE
Cosmos 1844 4.4 05:01:14 15° S 05:05:47 53° ESE 05:11:19 10° NE
Cosmos 1076 Rocket 4.2 05:10:26 51° SE 05:10:26 51° SE 05:13:50 10° SSE
Cosmos 2082 Rocket 3.7 05:08:56 16° N 05:12:41 31° NE 05:17:38 10° ESE
ATLAS 3B R/B 4.1 05:12:52 22° NNW 05:13:50 23° N 05:19:03 10° NE
CENTAUR R/B 3.2 05:17:19 39° NW 05:17:33 39° NNW 05:24:25 10° NE
Cosmos 371 Rocket 3.5 05:17:19 50° N 05:18:28 69° ENE 05:23:20 10° SSE
IRS-1C Rocket 4.0 05:14:56 10° N 05:20:03 70° WNW 05:20:03 70° WNW
COSMOS 2406 3.1 05:20:33 63° WSW 05:20:33 63° WSW 05:25:57 10° SSE
Cosmos 1570 Rocket 4.4 05:18:47 28° N 05:21:28 60° ENE 05:26:37 10° SE
Meteor 1-21 Rocket 4.3 05:22:34 58° WSW 05:22:34 58° WSW 05:27:45 10° S
BREEZE-M DEB (TANK) 2.9 05:26:23 79° NE 05:26:23 79° NE 05:33:07 10° E
Cosmos 1626 3.2 05:28:27 27° NNE 05:30:07 45° ENE 05:33:42 10° SSE
Okean 3 Rocket 3.7 05:31:10 61° SSW 05:31:10 61° SSW 05:34:54 10° S
Cosmos 1766 Rocket 3.9 05:27:58 20° N 05:30:52 63° ENE 05:35:13 10° SSE
Abrixas rocket 3.3 05:35:25 42° SE 05:35:25 42° SE 05:37:44 10° ESE
Okean-O 2.7 05:31:56 10° NNE 05:36:24 77° ESE 05:40:49 10° S
COSMO-SKYMED 1 2.8 05:36:08 10° S 05:39:46 51° SW 05:39:46 51° SW
Cosmos 1833 Rocket 3.4 05:41:06 14° NNW 05:45:49 51° NE 05:51:19 10° SE
CZ-2C R/B 2.5 05:42:18 10° NNE 05:46:54 68° ESE 05:51:32 10° S
CZ-4B R/B 3.8 05:42:41 10° N 05:46:36 34° NW 05:46:36 34° NW
Cosmos 614 Rocket 3.8 05:45:35 22° SW 05:48:55 68° WNW 05:54:00 10° NNE
Cosmos 1741 Rocket 4.4 05:44:40 10° S 05:49:52 66° ESE 05:55:04 10° NNE
Cosmos 1709 Rocket 4.1 05:44:29 10° SSW 05:50:39 55° WNW 05:56:56 10° N
Cosmos 1315 Rocket 3.1 05:53:37 45° SW 05:53:37 45° SW 05:56:54 10° S
EO 1 Del DPAF 3.2 05:50:17 10° S 05:54:02 57° WSW 05:54:09 57° W
Cosmos 2263 Rocket 3.7 05:56:44 19° NNW 05:56:44 19° NNW 05:59:53 10° N
Meteor 2-8 Rocket 4.3 05:50:52 10° NNW 05:57:01 75° W 06:03:08 10° S
Lacrosse 5 4.0 06:01:38 11° SW 06:01:38 11° SW 06:01:54 10° SW
BREEZE-M DEB (TANK) 2.6 05:57:38 32° W 06:00:18 79° N 06:03:09 10° E
Cosmos 2184 Rocket 4.1 05:54:38 10° S 06:00:53 82° E 06:07:15 10° N
Feng Yun 1-1 Rocket 4.1 05:58:05 10° N 06:03:29 63° WNW 06:08:47 10° SSW
Shenzhou-11 Module 3.8 06:04:03 20° SSW 06:04:55 23° S 06:07:25 10° ESE
IDEFIX/ARIANE 42P 2.6 06:02:47 10° N 06:07:59 61° WNW 06:13:10 10° SSW
Cosmos 332 Rocket 4.3 06:10:32 29° WNW 06:12:08 38° WSW 06:16:36 10° S
Nadezhda 3 Rocket 4.2 06:10:49 10° N 06:17:13 75° E 06:23:31 10° SSE
CZ-4C R/B 3.5 06:13:40 23° WNW 06:17:19 36° WSW 06:24:22 10° S
Cosmos 2278 Rocket 2.2 06:13:01 10° SSW 06:18:42 89° ESE 06:24:25 10° NNE
FAST Rocket 4.2 06:16:14 10° SSW 06:18:59 80° WNW 06:22:54 10° N
Cosmos 304 Rocket 3.8 06:14:24 11° NNW 06:19:04 87° ENE 06:23:52 10° SSE
SJ-12 3.8 06:15:10 10° NNE 06:19:18 82° WNW 06:23:26 10° SSW
Meteor 2-19 Rocket 4.3 06:13:50 10° SSW 06:19:54 79° W 06:26:00 10° N
Cosmos 1328 4.5 06:21:52 26° NW 06:23:12 32° W 06:26:46 10° SSW
Tiangong 2 3.6 06:21:11 10° SSW 06:23:27 18° SSE 06:25:42 10° ESE
Cosmos-2242 3.0 06:19:19 10° SSW 06:23:33 54° WNW 06:27:46 10° N
ATLAS CENTAUR R/B 1.7 06:22:08 27° WNW 06:23:57 46° WSW 06:28:04 10° SSE
Cosmos 1408 Rocket 3.8 06:20:20 11° NNW 06:24:15 43° W 06:28:24 10° SSW
Cosmos 2208 Rocket 4.3 06:21:13 14° NW 06:25:40 49° WSW 06:30:54 10° S
CSL-04 Rocket 4.4 06:22:27 10° NNE 06:27:47 57° ESE 06:33:01 10° S
Thor Agena Rocket 3.5 06:25:46 10° S 06:31:00 73° WSW 06:36:19 10° NNW
Cosmos 1140 Rocket 4.2 06:28:45 13° WSW 06:32:38 31° NW 06:37:13 10° N
PAYLOAD A 4.5 06:31:13 10° N 06:35:40 34° WNW 06:39:58 10° SW
Cosmos 1844 Rocket 3.4 06:31:58 15° WSW 06:35:55 31° NW 06:40:52 10° NNE
Cosmos 1500 Rocket 3.5 06:31:58 10° NNW 06:36:25 82° W 06:40:48 10° S
Cosmos 2074 Rocket 4.1 06:31:18 10° SSW 06:37:22 55° WNW 06:43:29 10° N
Cosmos 2058 2.9 06:33:33 10° NNW 06:37:45 61° W 06:41:53 10° S
USA 234 3.9 06:32:04 10° ENE 06:38:08 42° N 06:43:14 15° WNW
Cosmos 1850 Rocket 4.2 06:34:50 10° SW 06:39:56 50° WNW 06:45:07 10° NNE
Cosmos 2151 3.0 06:38:53 10° NNW 06:43:08 58° W 06:47:21 10° S
SL-27 R/B 3.2 06:42:49 15° NW 06:45:23 35° WSW 06:48:45 10° S
SJ-7 4.4 06:44:50 10° N 06:49:05 69° WNW 06:53:18 10° SSW
Cosmos 1908 3.2 06:45:33 10° SSW 06:49:29 80° W 06:53:26 10° N
Cosmos 1743 Rocket 3.8 06:45:49 10° NNW 06:49:58 46° W 06:54:06 10° SSW
Cosmos 1844 4.4 06:45:06 10° WSW 06:50:12 32° NW 06:55:18 10° NNE
COSMOS 2455 4.1 06:48:32 14° WNW 06:51:55 21° NNW 06:56:28 10° NNE
Cosmos 468 Rocket 4.4 06:47:15 10° NW 06:52:06 42° WSW 06:56:58 10° S
Cosmos 1814 Rocket 4.0 06:47:20 10° NNW 06:52:31 64° WSW 06:57:37 10° S
Cosmos 1703 4.0 06:49:26 10° NNW 06:52:58 31° W 06:56:30 10° SSW
Cosmos 2082 Rocket 2.4 06:51:36 10° NW 06:57:05 54° WSW 07:02:31 10° S
USA 229 DEB 3.7 06:53:55 10° SW 07:00:43 86° NW 07:07:44 10° NE
USA 229 3.7 06:54:01 10° SW 07:00:48 86° NW 07:07:50 10° NE
Cosmos 841 Rocket 3.4 06:55:55 10° NNW 07:01:06 76° WSW 07:06:14 10° SSE
CZ-4 R/B 1.4 06:56:59 10° NNE 07:01:10 89° WNW 07:05:13 10° SSW
CSL-04 Debris 4.2 06:55:44 10° NNE 07:01:17 85° WNW 07:06:47 10° SSW
Cosmos 2221 2.7 06:57:33 10° S 07:01:49 75° E 07:06:07 10° NNE
Sich 1 4.1 07:00:38 10° N 07:04:48 47° ENE 07:08:57 10° SSE
Cosmos 1626 3.8 07:03:07 11° NW 07:05:03 15° W 07:07:10 10° WSW
ATLAS 3B R/B 4.0 07:01:07 10° NW 07:06:51 27° NNE 07:12:23 10° ENE
SeaSat 1 3.9 07:02:40 10° NE 07:07:23 43° ESE 07:12:03 10° S
Cosmos 1726 2.1 07:04:17 10° S 07:08:01 86° W 07:11:46 10° N
Meteor 2-1 Rocket 4.2 07:03:37 10° SSW 07:09:02 60° WNW 07:14:36 10° N
CENTAUR R/B 4.1 07:04:41 10° WNW 07:10:21 25° N 07:16:34 10° NE
Cosmos 2341 Rocket 4.0 07:04:15 10° SSW 07:10:28 79° W 07:16:43 10° N
Abrixas rocket 4.0 07:08:09 10° W 07:10:42 21° SSW 07:13:15 10° SSE
SMAP 3.1 07:07:10 10° N 07:11:45 57° WNW 07:16:18 10° SSW
Cosmos 1484 Rocket 3.3 07:08:41 10° N 07:12:05 33° WNW 07:15:28 10° SW
Okean-O 4.2 07:09:47 10° NNW 07:12:19 15° WNW 07:14:51 10° W
Cosmos 1763 Rocket 3.8 07:08:05 10° NW 07:12:54 44° WSW 07:17:44 10° S
Cosmos 1486 Rocket 4.4 07:07:38 10° SSW 07:12:57 74° ESE 07:18:17 10° NNE
METEOR-M 4.3 07:10:47 10° NNE 07:16:11 84° ESE 07:21:32 10° SSW
ERS-2 4.3 07:18:12 10° NNE 07:21:35 32° E 07:24:55 10° SSE
Cosmos 2297 3.7 07:17:49 10° SW 07:23:33 71° WNW 07:29:17 10° NNE
Cosmos 1892 4.3 07:20:06 10° N 07:23:45 37° ENE 07:27:21 10° SE
CZ-2C R/B 3.7 07:21:42 10° NNW 07:24:40 17° WNW 07:27:41 10° W
YAOGAN 1 2.5 07:21:46 10° N 07:26:06 74° WNW 07:30:24 10° SSW
Cosmos 2154 Rocket 4.3 07:20:58 10° SW 07:26:50 44° WNW 07:32:47 10° N
